{"data":{"norad_id":68216,"intl_designator":"2026-053K","name":"STARLINK-37014","alt_names":[],"object_type":"PAYLOAD","status":"ACTIVE","operator":null,"country":"US","launch_date":"2026-03-17","launch_site_code":"AFWTR","launch_vehicle":null,"mission":null,"orbit_class":"UNKNOWN","rcs_meters":null,"size_class":null,"mass_kg":null,"dimensions":null,"purposes":["comms"],"wikipedia_slug":null,"has_3d_model":false,"image_url":null,"decayed_at":null,"tle_current":{"epoch":"2026-05-25T03:18:47.463840Z","epoch_age_seconds":59269,"freshness":"FRESH","line1":"1 68216U 26053K   26145.13804935  .00019813  00000+0  61435-3 0  9993","line2":"2 68216  97.2869  20.5825 0001835  98.4097 261.7354 15.33448685 11931","mean_motion":15.33448685,"eccentricity":0.0001835,"inclination_deg":97.2869,"raan_deg":20.5825,"arg_perigee_deg":98.4097,"mean_anomaly_deg":261.7354,"bstar":0.00061435,"rev_number":1193,"period_min":93.905978992704,"perigee_km":464.27639723257,"apogee_km":466.78802383284,"semimajor_km":6843.6692105327,"source":"CELESTRAK","updated_at":"2026-05-25T13:38:21.879295Z"}}}